Location: Baix
(44.7118°N, 4.7648°E)
Time: 16:29:08
(UTC+00:00)

SL-4 R/B - Pass Details

Date: 07 August 2020
Orbit: 428 x 665 km, 51.6° (Epoch: 23 September)

Event Time Altitude Azimuth Distance (km) Brightness Sun altitude
Rises 03:34:07 0° 294° (WNW) 2,409 5.0 -10.1°
Reaches altitude 10° 03:36:23 10° 283° (WNW) 1,528 3.9 -9.8°
Maximum altitude 03:39:23 29° 221° (SW) 809 2.3 -9.3°
Drops below altitude 10° 03:42:24 10° 159° (SSE) 1,526 4.2 -8.9°
Sets 03:44:40 0° 148° (SSE) 2,405 5.3 -8.6°
